When you browse on this site, cookies collect data to enhance your experience and personalize the content and advertising you see.
Visit our Privacy Policy to learn more. By continuing to use the site, you agree to this use of cookies and data.
  • In United Kingdom
  • List of Countries
  • For 7 days
  • Water Temperature
  • Satellite Maps
  • Weather Map
  • Weather Widgets
  • user-avatar
    Login

    Hourly Weather Malikrabat

    Today, 16 January, Wednesday

    Time Temperature Precipitation Wind Pressure Humidity
    00:00 +5°C° 0 mm 0 mps 733 mmHg 78%
    01:00 +4°C° 0 mm 0 mps 733 mmHg 79%
    02:00 +4°C° 0 mm 0 mps 733 mmHg 80%
    03:00 +4°C° 0 mm 0 mps 733 mmHg 81%
    04:00 +3°C° 0 mm 0 mps 733 mmHg 83%
    05:00 +3°C° 0 mm 0 mps 733 mmHg 83%
    06:00 +3°C° 0 mm 0 mps 734 mmHg 84%
    07:00 +3°C° 0 mm 0 mps 734 mmHg 85%
    08:00 +4°C° 0 mm 0 mps 734 mmHg 76%
    09:00 +7°C° 0 mm 1 mps 734 mmHg 67%
    10:00 +9°C° 0 mm 1 mps 735 mmHg 59%
    11:00 +10°C° 0 mm 1 mps 735 mmHg 54%
    12:00 +10°C° 0 mm 1 mps 735 mmHg 50%
    13:00 +10°C° 0 mm 0 mps 734 mmHg 46%
    14:00 +11°C° 0 mm 1 mps 734 mmHg 46%
    15:00 +11°C° 0 mm 1 mps 734 mmHg 46%
    16:00 +12°C° 0 mm 1 mps 734 mmHg 45%
    17:00 +11°C° 0 mm 1 mps 734 mmHg 48%
    18:00 +9°C° 0 mm 2 mps 734 mmHg 50%
    19:00 +8°C° 0 mm 2 mps 734 mmHg 52%
    20:00 +8°C° 0 mm 3 mps 734 mmHg 53%
    21:00 +8°C° 0 mm 3 mps 734 mmHg 54%
    22:00 +7°C° 0 mm 4 mps 734 mmHg 56%
    23:00 +7°C° 0 mm 4 mps 734 mmHg 59%

    Tomorrow, 17 January, Thursday

    Time Temperature Precipitation Wind Pressure Humidity
    00:00 +6°C° 0 mm 4 mps 733 mmHg 62%
    01:00 +6°C° 0 mm 5 mps 733 mmHg 65%
    02:00 +6°C° 0 mm 5 mps 733 mmHg 65%
    03:00 +6°C° 0 mm 5 mps 732 mmHg 66%
    04:00 +6°C° 0 mm 5 mps 732 mmHg 67%
    05:00 +5°C° 0 mm 6 mps 732 mmHg 62%
    06:00 +7°C° 0 mm 6 mps 731 mmHg 57%
    07:00 +7°C° 0 mm 6 mps 731 mmHg 52%
    08:00 +9°C° 0 mm 7 mps 731 mmHg 44%
    09:00 +11°C° 0 mm 7 mps 731 mmHg 36%
    10:00 +12°C° 0 mm 8 mps 730 mmHg 29%
    11:00 +15°C° 0 mm 8 mps 730 mmHg 26%
    12:00 +16°C° 0 mm 8 mps 729 mmHg 24%
    13:00 +18°C° 0 mm 8 mps 728 mmHg 21%
    14:00 +17°C° 0 mm 7 mps 728 mmHg 22%
    15:00 +17°C° 0 mm 7 mps 727 mmHg 23%
    16:00 +16°C° 0 mm 6 mps 727 mmHg 25%
    17:00 +16°C° 0 mm 7 mps 727 mmHg 26%
    18:00 +15°C° 0 mm 7 mps 726 mmHg 27%
    19:00 +13°C° 0 mm 8 mps 726 mmHg 28%
    20:00 +13°C° 0 mm 8 mps 726 mmHg 29%
    21:00 +13°C° 0 mm 8 mps 725 mmHg 31%
    22:00 +13°C° 0 mm 9 mps 725 mmHg 33%
    23:00 +13°C° 0 mm 9 mps 724 mmHg 32%

    Day after tomorrow, 18 January, Friday

    Time Temperature Precipitation Wind Pressure Humidity
    00:00 +13°C° 0 mm 9 mps 724 mmHg 30%
    01:00 +13°C° 0 mm 9 mps 723 mmHg 29%
    02:00 +13°C° 0 mm 9 mps 723 mmHg 29%
    03:00 +13°C° 0 mm 9 mps 723 mmHg 28%
    04:00 +13°C° 0 mm 9 mps 722 mmHg 27%
    05:00 +13°C° 0 mm 9 mps 722 mmHg 30%
    06:00 +12°C° 0 mm 8 mps 722 mmHg 33%
    07:00 +12°C° 0 mm 8 mps 722 mmHg 36%
    08:00 +12°C° 1.9 mm 9 mps 722 mmHg 47%
    09:00 +12°C° 1.9 mm 9 mps 723 mmHg 59%
    10:00 +12°C° 1.9 mm 10 mps 723 mmHg 70%
    11:00 +12°C° 0 mm 9 mps 723 mmHg 65%
    12:00 +13°C° 0 mm 8 mps 723 mmHg 60%
    13:00 +15°C° 0 mm 6 mps 723 mmHg 54%
    14:00 +12°C° 0 mm 8 mps 724 mmHg 59%
    15:00 +11°C° 0 mm 9 mps 725 mmHg 64%
    16:00 +9°C° 0 mm 10 mps 726 mmHg 69%
    17:00 +8°C° 0 mm 10 mps 727 mmHg 67%
    18:00 +7°C° 0 mm 9 mps 728 mmHg 64%
    19:00 +7°C° 0 mm 8 mps 729 mmHg 62%
    20:00 +6°C° 0 mm 8 mps 730 mmHg 63%
    21:00 +5°C° 0 mm 8 mps 730 mmHg 63%
    22:00 +4°C° 0 mm 7 mps 731 mmHg 64%
    23:00 +4°C° 0 mm 6 mps 731 mmHg 65%

    19 January, Saturday

    Time Temperature Precipitation Wind Pressure Humidity
    00:00 +3°C° 0 mm 5 mps 732 mmHg 67%
    01:00 +4°C° 0 mm 4 mps 732 mmHg 68%
    02:00 +4°C° 0.2 mm 4 mps 732 mmHg 68%
    03:00 +4°C° 0.2 mm 4 mps 732 mmHg 69%
    04:00 +3°C° 0.2 mm 4 mps 733 mmHg 69%
    05:00 +3°C° 0.7 mm 3 mps 733 mmHg 73%
    06:00 +3°C° 0.7 mm 3 mps 733 mmHg 77%
    07:00 +3°C° 0.7 mm 2 mps 734 mmHg 81%
    08:00 +3°C° 0.1 mm 2 mps 734 mmHg 81%
    09:00 +3°C° 0.1 mm 2 mps 734 mmHg 80%
    10:00 +4°C° 0.1 mm 2 mps 734 mmHg 79%
    11:00 +4°C° 0 mm 2 mps 734 mmHg 77%
    12:00 +4°C° 0 mm 2 mps 733 mmHg 75%
    13:00 +4°C° 0 mm 2 mps 733 mmHg 73%
    14:00 +4°C° 0 mm 2 mps 733 mmHg 72%
    15:00 +4°C° 0 mm 2 mps 733 mmHg 70%
    16:00 +4°C° 0 mm 2 mps 733 mmHg 69%
    17:00 +4°C° 0 mm 2 mps 733 mmHg 68%
    18:00 +4°C° 0 mm 2 mps 733 mmHg 67%
    19:00 +4°C° 0 mm 2 mps 734 mmHg 66%
    20:00 +4°C° 0.1 mm 2 mps 734 mmHg 64%
    21:00 +4°C° 0.1 mm 2 mps 734 mmHg 62%
    22:00 +4°C° 0.1 mm 2 mps 734 mmHg 60%
    23:00 +4°C° 0 mm 2 mps 734 mmHg 60%

    20 January, Sunday

    Time Temperature Precipitation Wind Pressure Humidity
    00:00 +4°C° 0 mm 2 mps 734 mmHg 60%
    01:00 +4°C° 0 mm 2 mps 734 mmHg 60%
    02:00 +4°C° 0 mm 2 mps 734 mmHg 62%
    03:00 +2°C° 0 mm 3 mps 735 mmHg 63%
    04:00 +2°C° 0 mm 3 mps 735 mmHg 65%
    05:00 +2°C° 0 mm 3 mps 735 mmHg 68%
    06:00 0°C° 0 mm 4 mps 735 mmHg 71%
    07:00 -1°C° 0 mm 5 mps 736 mmHg 74%
    08:00 0°C° 0 mm 5 mps 736 mmHg 71%
    09:00 -1°C° 0 mm 6 mps 736 mmHg 68%
    10:00 -1°C° 0 mm 6 mps 736 mmHg 64%
    11:00 -1°C° 0 mm 6 mps 736 mmHg 61%
    12:00 +1°C° 0 mm 6 mps 736 mmHg 57%
    13:00 +1°C° 0 mm 6 mps 736 mmHg 54%
    14:00 +2°C° 0 mm 6 mps 736 mmHg 53%
    15:00 +2°C° 0 mm 5 mps 737 mmHg 51%
    16:00 +3°C° 0 mm 4 mps 737 mmHg 50%
    17:00 +2°C° 0 mm 3 mps 737 mmHg 52%
    18:00 +2°C° 0 mm 3 mps 738 mmHg 54%
    19:00 +2°C° 0 mm 2 mps 738 mmHg 57%
    20:00 +2°C° 0 mm 2 mps 739 mmHg 59%
    21:00 +3°C° 0 mm 1 mps 739 mmHg 62%
    22:00 +2°C° 0 mm 1 mps 739 mmHg 65%
    23:00 +2°C° 0 mm 1 mps 739 mmHg 67%

    21 January, Monday

    Time Temperature Precipitation Wind Pressure Humidity
    00:00 +2°C° 0 mm 1 mps 739 mmHg 70%
    01:00 +1°C° 0 mm 1 mps 739 mmHg 72%
    02:00 +1°C° 0 mm 1 mps 739 mmHg 73%
    03:00 +1°C° 0 mm 1 mps 739 mmHg 74%
    04:00 +1°C° 0 mm 1 mps 739 mmHg 74%
    05:00 +1°C° 0 mm 1 mps 739 mmHg 73%
    06:00 +1°C° 0 mm 1 mps 740 mmHg 72%
    07:00 +1°C° 0 mm 1 mps 740 mmHg 71%
    08:00 +2°C° 0 mm 1 mps 740 mmHg 66%
    09:00 +3°C° 0 mm 1 mps 740 mmHg 61%
    10:00 +4°C° 0 mm 1 mps 740 mmHg 55%
    11:00 +4°C° 0 mm 2 mps 739 mmHg 53%
    12:00 +4°C° 0 mm 2 mps 738 mmHg 50%
    13:00 +5°C° 0 mm 2 mps 738 mmHg 47%
    14:00 +4°C° 0 mm 3 mps 738 mmHg 48%
    15:00 +4°C° 0 mm 3 mps 738 mmHg 49%
    16:00 +4°C° 0 mm 3 mps 738 mmHg 50%
    17:00 +3°C° 0 mm 3 mps 738 mmHg 55%
    18:00 +3°C° 0 mm 3 mps 738 mmHg 59%
    19:00 +1°C° 0 mm 4 mps 738 mmHg 64%
    20:00 +2°C° 0 mm 3 mps 738 mmHg 66%
    21:00 +1°C° 0 mm 3 mps 738 mmHg 67%
    22:00 +1°C° 0 mm 3 mps 737 mmHg 69%
    23:00 +1°C° 0 mm 3 mps 737 mmHg 70%
    Show more